FW6724 Weather Reports


Display with metric or nautical units.
time (UTC)temp
F
wind
direction
speed
MPH
gust
MPH
rain 1hr
in
rain 24hr
in
rain mn
in
humidity
%
barometer
mb
20260510200042 71 302 2.0 5.0 0.00 0.00 0.00 39 1012.0
20260510194538 72 294 1.0 3.0 0.00 0.00 0.00 38 1011.9
20260510193052 72 0 1.0 4.0 0.00 0.00 0.00 37 1011.6
20260510191537 74 16 2.0 7.0 0.00 0.00 0.00 35 1011.5
20260510190036 73 288 4.0 12.0 0.00 0.00 0.00 34 1011.4
20260510184537 74 230 8.0 19.0 0.00 0.00 0.00 35 1011.3
20260510183046 74 270 7.0 28.0 0.00 0.00 0.00 34 1011.4
20260510181536 74 205 9.0 22.0 0.00 0.00 0.00 33 1011.2
20260510180046 75 192 13.0 25.0 0.00 0.00 0.00 33 1011.3
20260510174532 75 210 16.0 24.0 0.00 0.00 0.00 32 1011.1
20260510173037 76 237 11.0 23.0 0.00 0.00 0.00 33 1011.1
20260510171537 76 235 10.0 23.0 0.00 0.00 0.00 33 1011.0
20260510170040 77 197 9.0 20.0 0.00 0.00 0.00 32 1011.0
20260510164548 78 196 7.0 19.0 0.00 0.00 0.00 31 1011.0
20260510163043 78 191 9.0 19.0 0.00 0.00 0.00 30 1011.1
20260510161543 78 140 5.0 17.0 0.00 0.00 0.00 29 1011.1
20260510160051 78 133 7.0 18.0 0.00 0.00 0.00 29 1011.0
20260510154540 79 124 7.0 29.0 0.00 0.00 0.00 29 1010.9
20260510153036 78 132 10.0 24.0 0.00 0.00 0.00 30 1011.0
20260510151534 78 170 7.0 21.0 0.00 0.00 0.00 30 1011.2
20260510150034 78 169 6.0 19.0 0.00 0.00 0.00 30 1011.3
20260510144537 79 207 6.0 23.0 0.00 0.00 0.00 30 1011.3
20260510143044 79 106 8.0 20.0 0.00 0.00 0.00 29 1011.4
20260510141536 79 142 8.0 18.0 0.00 0.00 0.00 30 1011.5
20260510140035 79 180 4.0 14.0 0.00 0.00 0.00 30 1011.9
20260510134539 79 105 5.0 14.0 0.00 0.00 0.00 30 1012.0
20260510133038 78 108 4.0 14.0 0.00 0.00 0.00 32 1012.2
20260510131538 79 355 7.0 21.0 0.00 0.00 0.00 33 1012.4
20260510130038 78 164 7.0 22.0 0.00 0.00 0.00 34 1012.5
20260510124556 75 193 10.0 20.0 0.00 0.00 0.00 43 1012.8
20260510123033 74 83 7.0 18.0 0.00 0.00 0.00 48 1013.2
20260510121538 73 105 1.0 8.0 0.00 0.00 0.00 49 1013.6
20260510120038 72 53 8.0 15.0 0.00 0.00 0.00 52 1013.7
20260510114541 73 127 6.0 12.0 0.00 0.00 0.00 49 1014.1
20260510113037 73 89 5.0 14.0 0.00 0.00 0.00 46 1014.3
20260510111557 76 131 9.0 16.0 0.00 0.00 0.00 44 1014.4
20260510110039 76 90 5.0 11.0 0.00 0.00 0.00 42 1014.5
20260510104547 75 46 4.0 10.0 0.00 0.04 0.00 43 1014.6
20260510103039 74 79 2.0 9.0 0.00 0.04 0.00 42 1014.7
20260510101533 73 81 5.0 9.0 0.00 0.04 0.00 43 1014.9
20260510100036 72 98 4.0 9.0 0.00 0.04 0.00 44 1015.0
20260510094544 71 85 3.0 7.0 0.00 0.14 0.00 47 1015.0
20260510093041 70 0 0.0 7.0 0.00 0.14 0.00 50 1015.2
20260510091550 70 88 3.0 7.0 0.00 0.14 0.00 50 1015.3
20260510090037 69 101 3.0 8.0 0.00 0.14 0.00 53 1015.2
20260510084537 68 111 1.0 4.0 0.00 0.18 0.00 53 1015.5
20260510083038 67 62 1.0 4.0 0.00 0.18 0.00 55 1015.5
20260510081544 67 101 1.0 3.0 0.00 0.18 0.00 57 1015.5
20260510080040 65 89 3.0 7.0 0.00 0.18 0.00 59 1015.5
20260510074536 64 0 1.0 4.0 0.00 0.25 0.00 61 1015.5
20260510073040 63 0 0.0 0.0 0.00 0.25 0.00 63 1015.7
20260510071539 61 0 0.0 0.0 0.00 0.25 0.00 66 1015.7
20260510070044 59 0 0.0 0.0 0.00 0.25 0.00 67 1015.5
20260510064556 59 0 0.0 2.0 0.00 0.31 0.00 68 1015.5
20260510063044 58 0 1.0 4.0 0.00 0.31 0.00 68 1015.3
20260510061546 56 0 0.0 1.0 0.00 0.31 0.00 68 1015.3
20260510060040 56 0 0.0 4.0 0.00 0.31 0.00 68 1015.4
20260510054534 56 284 1.0 4.0 0.00 0.31 0.00 68 1015.1
20260510053035 56 0 0.0 0.0 0.00 0.31 0.00 67 1015.0
20260510051534 56 0 0.0 2.0 0.00 0.31 0.00 67 1014.9
20260510050039 56 281 0.0 4.0 0.00 0.31 0.00 67 1015.0
20260510044538 56 0 0.0 0.0 0.00 0.31 0.00 67 1015.0
20260510043034 56 0 0.0 0.0 0.00 0.31 0.00 67 1015.0
20260510041536 57 0 0.0 0.0 0.00 0.31 0.00 66 1014.8
20260510040039 57 0 0.0 0.0 0.00 0.31 0.00 66 1014.7
20260510034544 57 0 0.0 0.0 0.00 0.31 0.00 66 1014.9
20260510033038 57 0 0.0 0.0 0.00 0.31 0.00 65 1014.7
20260510031536 57 0 0.0 2.0 0.00 0.31 0.00 65 1014.7
20260510030034 57 279 0.0 4.0 0.00 0.31 0.00 64 1014.6
20260510024544 58 0 0.0 0.0 0.00 0.31 0.00 64 1014.6
20260510023038 59 0 0.0 0.0 0.00 0.31 0.00 64 1014.6
20260510021538 60 0 0.0 0.0 0.00 0.31 0.00 64 1014.6
20260510020033 61 0 0.0 0.0 0.00 0.31 0.00 64 1014.6
20260510014539 61 0 0.0 0.0 0.00 0.31 0.00 64 1014.4
20260510013042 60 0 0.0 0.0 0.00 0.31 0.00 64 1014.4
20260510011533 60 0 0.0 2.0 0.00 0.31 0.00 64 1014.6
20260510010038 60 0 0.0 3.0 0.00 0.31 0.00 65 1014.6
20260510004537 60 0 0.0 0.0 0.00 0.31 0.00 64 1014.9
20260510003044 60 0 0.0 0.0 0.00 0.31 0.00 64 1014.9
20260510001532 60 0 0.0 0.0 0.00 0.31 0.00 64 1014.9
20260510000033 60 0 0.0 0.0 0.00 0.31 0.00 64 1014.8
20260509234555 60 0 0.0 0.0 0.00 0.31 0.00 63 1015.1
20260509233045 60 0 0.0 0.0 0.00 0.31 0.00 63 1015.2
20260509231540 60 0 0.0 0.0 0.00 0.31 0.00 62 1015.3
20260509230032 60 0 0.0 0.0 0.00 0.31 0.00 62 1015.4
20260509224537 61 0 0.0 2.0 0.00 0.31 0.00 61 1015.3
20260509223038 61 202 0.0 3.0 0.00 0.31 0.00 61 1015.3
20260509221537 62 0 1.0 2.0 0.00 0.31 0.00 60 1015.3
20260509220038 62 0 0.0 2.0 0.00 0.31 0.00 59 1015.2
20260509214533 63 0 1.0 2.0 0.00 0.31 0.31 58 1015.1
20260509213039 63 0 0.0 1.0 0.00 0.31 0.31 57 1015.0
20260509211544 64 134 1.0 5.0 0.00 0.31 0.31 57 1014.9
20260509210048 64 49 2.0 5.0 0.00 0.31 0.31 56 1014.8
20260509204537 64 214 4.0 13.0 0.00 0.31 0.31 56 1014.6
20260509203041 64 0 0.0 5.0 0.00 0.31 0.31 55 1014.6
20260509201550 64 92 2.0 4.0 0.00 0.31 0.31 54 1014.4